CW0526 Weather Reports


time (UTC)temp
F
wind
direction
speed
knots
gust
knots
rain 1hr
in
rain 24hr
in
rain mn
in
humidity
%
barometer
mb
20260506230553 44 262 0.9 2.6 0.00 0.00 0.00 80 1013.5
20260506224553 44 263 0.0 0.0 0.00 0.00 0.00 80 1013.6
20260506223553 44 264 0.0 0.0 0.00 0.00 0.00 81 1013.6
20260506220552 45 263 0.0 0.9 0.00 0.00 0.00 80 1013.7
20260506220055 45 263 0.0 0.9 0.00 0.00 0.00 80 1013.7
20260506213553 46 263 0.0 0.0 0.00 0.00 0.00 79 1013.6
20260506213054 46 263 0.0 0.0 0.00 0.00 0.00 78 1013.7
20260506211553 46 263 0.0 0.0 0.00 0.00 0.00 77 1013.8
20260506210553 47 263 0.0 0.0 0.00 0.00 0.00 77 1013.8
20260506204053 47 264 0.0 0.0 0.00 0.00 0.00 76 1013.8
20260506203553 48 264 0.0 0.0 0.00 0.00 0.00 75 1013.8
20260506203054 48 264 0.0 0.0 0.00 0.00 0.00 75 1013.8
20260506201553 48 264 0.0 0.0 0.00 0.00 0.00 75 1013.8
20260506201053 48 264 0.0 0.9 0.00 0.00 0.00 74 1013.8
20260506200056 48 263 0.0 2.6 0.00 0.00 0.00 74 1013.8
20260506193553 49 269 0.0 2.6 0.00 0.00 0.00 72 1013.8
20260506190553 50 261 0.9 2.6 0.00 0.00 0.00 67 1013.8
20260506190054 50 259 0.9 6.1 0.00 0.00 0.00 67 1013.8
20260506184553 51 228 1.7 4.3 0.00 0.00 0.00 63 1013.8
20260506183054 52 249 0.9 6.1 0.00 0.00 0.00 64 1013.7
20260506181553 52 221 1.7 5.2 0.00 0.00 0.00 62 1013.7
20260506181053 52 244 2.6 7.0 0.00 0.00 0.00 62 1013.6
20260506180055 53 276 1.7 5.2 0.00 0.00 0.00 61 1013.6
20260506170553 53 103 0.9 2.6 0.00 0.00 0.00 59 1013.7
20260506164553 53 107 0.9 2.6 0.00 0.00 0.00 58 1013.9
20260506164053 53 102 1.7 2.6 0.00 0.00 0.00 58 1013.9
20260506163553 53 96 1.7 2.6 0.00 0.00 0.00 57 1013.9
20260506161553 54 91 1.7 5.2 0.00 0.00 0.00 55 1013.9
20260506161053 54 91 1.7 5.2 0.00 0.00 0.00 54 1014.0
20260506160553 54 90 0.9 2.6 0.00 0.00 0.00 53 1014.0
20260506154553 55 109 2.6 5.2 0.00 0.00 0.00 54 1014.3
20260506153553 55 110 2.6 5.2 0.00 0.00 0.00 53 1014.3
20260506151054 56 116 2.6 5.2 0.00 0.00 0.00 52 1014.5
20260506144554 56 102 2.6 5.2 0.00 0.00 0.00 51 1014.7
20260506141053 57 19 2.6 7.0 0.00 0.00 0.00 50 1014.9
20260506134553 57 61 1.7 4.3 0.00 0.00 0.00 49 1015.2
20260506134053 57 64 0.9 7.0 0.00 0.00 0.00 50 1015.2
20260506131054 58 45 2.6 8.7 0.00 0.00 0.00 50 1015.3
20260506130554 58 42 2.6 7.0 0.00 0.00 0.00 51 1015.2
20260506124554 56 130 3.5 6.1 0.00 0.00 0.00 52 1015.3
20260506123553 55 138 3.5 7.8 0.00 0.00 0.00 52 1015.5
20260506123055 56 73 2.6 8.7 0.00 0.00 0.00 51 1015.4
20260506121053 55 54 0.9 2.6 0.00 0.00 0.00 49 1015.6
20260506120554 55 57 1.7 7.0 0.00 0.00 0.00 52 1015.6
20260506120055 56 94 2.6 7.0 0.00 0.00 0.00 52 1015.6
20260506111553 54 81 1.7 5.2 0.00 0.00 0.00 53 1016.1
20260506111054 54 75 4.3 7.0 0.00 0.00 0.00 54 1016.1
20260506110055 53 59 2.6 7.0 0.00 0.00 0.00 56 1016.1
20260506104053 53 88 1.7 7.0 0.00 0.00 0.00 53 1016.2
20260506101553 52 120 1.7 6.1 0.00 0.00 0.00 53 1016.4
20260506100553 53 32 2.6 5.2 0.00 0.00 0.00 53 1016.5
20260506091553 51 48 4.3 7.8 0.00 0.00 0.00 59 1016.9
20260506091053 50 53 2.6 7.0 0.00 0.00 0.00 59 1016.9
20260506090105 49 66 4.3 8.7 0.00 0.00 0.00 61 1016.9
20260506084554 48 95 1.7 7.8 0.00 0.00 0.00 63 1017.1
20260506083553 48 29 3.5 7.8 0.00 0.00 0.00 64 1017.1
20260506081554 47 35 3.5 10.4 0.00 0.00 0.00 66 1017.1
20260506081054 47 49 4.3 8.7 0.00 0.00 0.00 66 1017.1
20260506080554 47 71 4.3 10.4 0.00 0.00 0.00 67 1017.0
20260506073055 44 70 1.7 7.8 0.00 0.00 0.00 74 1017.0
20260506071553 44 57 1.7 4.3 0.00 0.00 0.00 76 1017.1
20260506070554 43 54 1.7 2.6 0.00 0.00 0.00 77 1017.1
20260506061054 41 53 1.7 2.6 0.00 0.00 0.00 79 1017.1
20260506051054 40 67 0.0 0.0 0.00 0.00 0.00 80 1017.2
20260506043554 40 69 0.0 0.9 0.00 0.00 0.00 79 1017.2
20260506043055 40 69 0.0 0.0 0.00 0.00 0.00 79 1017.1
20260506041554 40 69 0.0 0.9 0.00 0.00 0.00 78 1017.1
20260506041054 40 69 0.9 1.7 0.00 0.00 0.00 78 1017.1
20260506040056 41 69 0.0 2.6 0.00 0.00 0.00 78 1017.1
20260506034554 41 71 0.9 2.6 0.00 0.00 0.00 77 1017.1
20260506033554 41 71 0.9 2.6 0.00 0.00 0.00 77 1017.2
20260506031054 41 69 0.9 2.6 0.00 0.00 0.00 77 1017.2
20260506030554 42 71 0.9 1.7 0.00 0.00 0.00 77 1017.3
20260506024554 42 73 0.9 1.7 0.00 0.00 0.00 76 1017.3
20260506024054 42 72 0.9 2.6 0.00 0.00 0.00 76 1017.3
20260506023555 42 73 0.9 2.6 0.00 0.00 0.00 76 1017.2
20260506021054 42 52 1.7 2.6 0.00 0.00 0.00 76 1017.4
20260506014554 42 61 0.9 2.6 0.00 0.00 0.00 75 1017.4
20260506014054 42 60 0.9 2.6 0.00 0.00 0.00 75 1017.4
20260506013555 42 61 1.7 2.6 0.00 0.00 0.00 75 1017.4
20260506011554 43 55 0.9 2.6 0.00 0.00 0.00 75 1017.7
20260506010056 43 50 0.9 2.6 0.00 0.00 0.00 75 1017.7
20260506004055 43 38 1.7 4.3 0.00 0.00 0.00 74 1017.8
20260506003055 43 45 0.9 2.6 0.00 0.00 0.00 74 1017.8
20260506001554 43 32 1.7 4.3 0.00 0.00 0.00 74 1017.7
20260506000554 43 46 1.7 2.6 0.00 0.00 0.00 74 1017.6
20260505233554 43 27 2.6 5.2 0.00 0.00 0.00 73 1017.5